CW7200 Weather Reports


time (UTC)temp
C
wind
direction
speed
KPH
gust
KPH
rain 1hr
cm
rain 24hr
cm
rain mn
cm
humidity
%
barometer
mb
20190216113838 11 0 0.0 0.0 0.00 0.00 0.00 50 1029.7
20190216112937 11 0 0.0 0.0 0.00 0.00 0.00 53 1029.8
20190216112037 11 0 0.0 0.0 0.00 0.00 0.00 55 1029.9
20190216111137 11 162 0.0 0.0 0.00 0.00 0.00 52 1029.9
20190216110237 11 159 0.0 4.8 0.00 0.00 0.00 58 1029.9
20190216105337 11 133 0.0 0.0 0.00 0.00 0.00 57 1030.0
20190216104437 10 100 0.0 3.2 0.00 0.00 0.00 62 1030.2
20190216103537 10 0 0.0 0.0 0.00 0.00 0.00 63 1030.2
20190216102637 10 122 0.0 0.0 0.00 0.00 0.00 64 1030.3
20190216101737 9 106 1.6 6.4 0.00 0.00 0.00 67 1030.4
20190216100837 8 117 1.6 6.4 0.00 0.00 0.00 70 1030.5
20190216095937 8 120 0.0 1.6 0.00 0.00 0.00 71 1030.4
20190216095037 8 0 0.0 0.0 0.00 0.00 0.00 72 1030.4
20190216094137 8 0 0.0 0.0 0.00 0.00 0.00 73 1030.4
20190216093237 8 280 1.6 8.0 0.00 0.00 0.00 70 1030.5
20190216092337 7 290 0.0 8.0 0.00 0.00 0.00 69 1030.4
20190216091437 6 0 0.0 0.0 0.00 0.00 0.00 71 1030.4
20190216090537 6 0 0.0 0.0 0.00 0.00 0.00 73 1030.5
20190216085637 5 0 0.0 0.0 0.00 0.00 0.00 76 1030.4
20190216084738 4 164 0.0 3.2 0.00 0.00 0.00 76 1030.4
20190216083837 3 0 0.0 0.0 0.00 0.00 0.00 79 1030.5
20190216082937 3 0 0.0 0.0 0.00 0.00 0.00 81 1030.5
20190216082037 2 0 0.0 0.0 0.00 0.00 0.00 83 1030.6
20190216081137 2 0 0.0 0.0 0.00 0.00 0.00 85 1030.7
20190216080237 1 0 0.0 0.0 0.00 0.00 0.00 86 1030.7
20190216075337 0 0 0.0 0.0 0.00 0.00 0.00 87 1030.9
20190216074437 0 0 0.0 0.0 0.00 0.00 0.00 86 1030.9
20190216073537 0 0 0.0 0.0 0.00 0.00 0.00 88 1030.9
20190216072637 0 0 0.0 0.0 0.00 0.00 0.00 89 1030.9
20190216071737 -1 0 0.0 0.0 0.00 0.00 0.00 89 1030.7
20190216070837 -1 0 0.0 0.0 0.00 0.00 0.00 89 1030.7
20190216065938 -2 0 0.0 0.0 0.00 0.00 0.00 88 1030.7
20190216065038 -2 0 0.0 0.0 0.00 0.00 0.00 88 1030.6
20190216064137 -2 0 0.0 0.0 0.00 0.00 0.00 88 1030.6
20190216063237 -2 0 0.0 0.0 0.00 0.00 0.00 87 1030.5
20190216062337 -2 0 0.0 0.0 0.00 0.00 0.00 87 1030.4
20190216061437 -2 0 0.0 0.0 0.00 0.00 0.00 87 1030.4
20190216060537 -2 0 0.0 0.0 0.00 0.00 0.00 86 1030.3
20190216055637 -2 0 0.0 0.0 0.00 0.00 0.00 87 1030.2
20190216054737 -2 0 0.0 0.0 0.00 0.00 0.00 88 1030.1
20190216053838 -2 0 0.0 0.0 0.00 0.00 0.00 88 1030.2
20190216052938 -2 0 0.0 0.0 0.00 0.00 0.00 87 1030.2
20190216052037 -2 0 0.0 0.0 0.00 0.00 0.00 87 1030.2
20190216051137 -2 0 0.0 0.0 0.00 0.00 0.00 86 1030.3
20190216050237 -2 0 0.0 0.0 0.00 0.00 0.00 86 1030.2
20190216045337 -2 0 0.0 0.0 0.00 0.00 0.00 86 1030.2
20190216044437 -2 0 0.0 0.0 0.00 0.00 0.00 85 1030.2
20190216043537 -2 0 0.0 0.0 0.00 0.00 0.00 85 1030.2
20190216042637 -1 0 0.0 0.0 0.00 0.00 0.00 85 1030.3
20190216041737 -1 0 0.0 0.0 0.00 0.00 0.00 85 1030.3
20190216040837 -1 0 0.0 0.0 0.00 0.00 0.00 85 1030.4
20190216035937 -1 0 0.0 0.0 0.00 0.00 0.00 84 1030.4
20190216035037 -1 0 0.0 0.0 0.00 0.00 0.00 86 1030.5
20190216034137 -1 0 0.0 0.0 0.00 0.00 0.00 85 1030.4
20190216033238 -1 0 0.0 0.0 0.00 0.00 0.00 85 1030.5
20190216032337 -1 0 0.0 0.0 0.00 0.00 0.00 85 1030.4
20190216031437 -1 0 0.0 0.0 0.00 0.00 0.00 85 1030.4
20190216030537 -1 0 0.0 0.0 0.00 0.00 0.00 84 1030.5
20190216025637 -1 0 0.0 0.0 0.00 0.00 0.00 83 1030.4
20190216024737 0 0 0.0 0.0 0.00 0.00 0.00 84 1030.4
20190216023837 0 0 0.0 0.0 0.00 0.00 0.00 83 1030.5
20190216022937 0 0 0.0 0.0 0.00 0.00 0.00 83 1030.6
20190216022037 0 0 0.0 0.0 0.00 0.00 0.00 83 1030.6
20190216021137 0 343 0.0 4.8 0.00 0.00 0.00 84 1030.6
20190216020237 0 0 0.0 0.0 0.00 0.00 0.00 83 1030.8
20190216015337 0 0 0.0 0.0 0.00 0.00 0.00 82 1031.0
20190216014437 0 0 0.0 0.0 0.00 0.00 0.00 81 1031.0
20190216013537 0 0 0.0 0.0 0.00 0.00 0.00 82 1031.1
20190216012637 0 353 3.2 4.8 0.00 0.00 0.00 83 1031.2
20190216011737 0 349 3.2 6.4 0.00 0.00 0.00 83 1031.3
20190216010837 0 348 0.0 4.8 0.00 0.00 0.00 85 1031.4
20190216005937 0 0 0.0 0.0 0.00 0.00 0.00 84 1031.5
20190216005037 0 0 0.0 0.0 0.00 0.00 0.00 84 1031.6
20190216004137 0 0 0.0 0.0 0.00 0.00 0.00 84 1031.6
20190216003237 0 0 0.0 0.0 0.00 0.00 0.00 85 1031.5
20190216002337 0 0 0.0 0.0 0.00 0.00 0.00 85 1031.6
20190216001437 0 0 0.0 0.0 0.00 0.00 0.00 85 1031.7
20190216000537 0 0 0.0 0.0 0.00 0.00 0.00 84 1031.7
20190215235637 0 0 0.0 0.0 0.00 0.00 0.00 86 1031.6
20190215234737 0 0 0.0 0.0 0.00 0.00 0.00 86 1031.8
20190215233837 0 0 0.0 0.0 0.00 0.00 0.00 85 1031.9
20190215232937 0 0 0.0 0.0 0.00 0.00 0.00 86 1031.9
20190215232037 0 325 0.0 0.0 0.00 0.00 0.00 86 1032.1
20190215231138 0 0 0.0 0.0 0.00 0.00 0.00 85 1032.1
20190215230237 0 325 1.6 4.8 0.00 0.00 0.00 85 1032.1
20190215225337 0 325 0.0 4.8 0.00 0.00 0.00 85 1032.1
20190215224437 0 324 0.0 1.6 0.00 0.00 0.00 83 1032.3
20190215223537 0 324 0.0 3.2 0.00 0.00 0.00 86 1032.2
20190215222637 0 0 0.0 0.0 0.00 0.00 0.00 86 1032.3
20190215221737 0 0 0.0 0.0 0.00 0.00 0.00 86 1032.4
20190215220837 0 0 0.0 0.0 0.00 0.00 0.00 86 1032.3
20190215215937 0 0 0.0 0.0 0.00 0.00 0.00 85 1032.4
20190215215037 0 0 0.0 0.0 0.00 0.00 0.00 85 1032.4
20190215214137 0 0 0.0 0.0 0.00 0.00 0.00 85 1032.3
20190215213238 0 0 0.0 0.0 0.00 0.00 0.00 85 1032.4
20190215212337 0 0 0.0 0.0 0.00 0.00 0.00 84 1032.4
20190215211437 0 0 0.0 0.0 0.00 0.00 0.00 85 1032.4
20190215210537 0 0 0.0 0.0 0.00 0.00 0.00 84 1032.4
20190215205637 0 0 0.0 0.0 0.00 0.00 0.00 84 1032.4
20190215204737 0 0 0.0 0.0 0.00 0.00 0.00 84 1032.5
20190215203837 0 0 0.0 0.0 0.00 0.00 0.00 85 1032.5
20190215202937 0 0 0.0 0.0 0.00 0.00 0.00 86 1032.6
20190215202037 0 0 0.0 0.0 0.00 0.00 0.00 85 1032.5
20190215201137 0 323 0.0 3.2 0.00 0.00 0.00 84 1032.6
20190215200237 0 0 0.0 0.0 0.00 0.00 0.00 83 1032.5
20190215195337 0 0 0.0 0.0 0.00 0.00 0.00 85 1032.6
20190215194437 0 0 0.0 0.0 0.00 0.00 0.00 81 1032.6
20190215193537 1 0 0.0 0.0 0.00 0.00 0.00 81 1032.6
20190215192637 1 0 0.0 0.0 0.00 0.00 0.00 83 1032.6
20190215191737 1 0 0.0 0.0 0.00 0.00 0.00 84 1032.6
20190215190837 1 0 0.0 0.0 0.00 0.00 0.00 84 1032.6
20190215185937 1 0 0.0 0.0 0.00 0.00 0.00 83 1032.6
20190215185038 1 0 0.0 0.0 0.00 0.00 0.00 82 1032.5
20190215184137 1 0 0.0 0.0 0.00 0.00 0.00 81 1032.5
20190215183237 1 0 0.0 0.0 0.00 0.00 0.00 82 1032.6
20190215182337 1 0 0.0 0.0 0.00 0.00 0.00 83 1032.6
20190215181437 1 0 0.0 0.0 0.00 0.00 0.00 82 1032.6
20190215180537 1 0 0.0 0.0 0.00 0.00 0.00 82 1032.6
20190215175637 1 0 0.0 0.0 0.00 0.00 0.00 84 1032.6
20190215174737 1 0 0.0 0.0 0.00 0.00 0.00 82 1032.6
20190215173837 1 0 0.0 0.0 0.00 0.00 0.00 80 1032.6
20190215172937 2 0 0.0 0.0 0.00 0.00 0.00 80 1032.6
20190215172037 2 0 0.0 0.0 0.00 0.00 0.00 80 1032.6
20190215171138 2 0 0.0 0.0 0.00 0.00 0.00 78 1032.6
20190215170237 2 0 0.0 0.0 0.00 0.00 0.00 77 1032.5
20190215165337 3 0 0.0 0.0 0.00 0.00 0.00 76 1032.4
20190215164437 3 0 0.0 0.0 0.00 0.00 0.00 75 1032.3
20190215163537 4 0 0.0 0.0 0.00 0.00 0.00 74 1032.2
20190215162637 5 0 0.0 0.0 0.00 0.00 0.00 73 1032.2
20190215161737 6 0 0.0 0.0 0.00 0.00 0.00 72 1032.2
20190215160837 6 0 0.0 0.0 0.00 0.00 0.00 70 1032.2
20190215155937 7 0 0.0 0.0 0.00 0.00 0.00 69 1032.2
20190215155037 7 0 0.0 0.0 0.00 0.00 0.00 68 1032.2
20190215154137 7 116 0.0 3.2 0.00 0.00 0.00 67 1032.2
20190215153237 7 115 1.6 4.8 0.00 0.00 0.00 67 1032.2
20190215152337 7 113 3.2 8.0 0.00 0.00 0.00 67 1032.2
20190215151437 8 111 3.2 8.0 0.00 0.00 0.00 67 1032.1
20190215150537 8 111 3.2 11.3 0.00 0.00 0.00 66 1032.1
20190215145637 8 116 1.6 9.7 0.00 0.00 0.00 65 1032.0
20190215144737 8 112 1.6 6.4 0.00 0.00 0.00 66 1032.0
20190215143837 8 110 1.6 8.0 0.00 0.00 0.00 65 1032.0
20190215142937 8 117 1.6 8.0 0.00 0.00 0.00 65 1032.0
20190215142037 8 118 0.0 9.7 0.00 0.00 0.00 65 1032.0
20190215141137 9 112 0.0 4.8 0.00 0.00 0.00 65 1032.1
20190215140237 8 123 3.2 9.7 0.00 0.00 0.00 66 1032.1
20190215135338 8 119 3.2 11.3 0.00 0.00 0.00 64 1032.1
20190215134437 8 120 1.6 11.3 0.00 0.00 0.00 63 1032.0
20190215133537 8 113 4.8 11.3 0.00 0.00 0.00 63 1032.1
20190215132642 8 111 4.8 12.9 0.00 0.00 0.00 62 1032.1
20190215131737 8 111 4.8 11.3 0.00 0.00 0.00 65 1032.2
20190215130838 8 116 4.8 11.3 0.00 0.00 0.00 65 1032.1
20190215125937 8 115 4.8 12.9 0.00 0.00 0.00 64 1032.2
20190215125037 8 119 6.4 14.5 0.00 0.00 0.00 63 1032.5
20190215124137 8 117 6.4 16.1 0.00 0.00 0.00 63 1032.6
20190215123237 8 109 4.8 17.7 0.00 0.00 0.00 63 1032.7
20190215122337 8 110 3.2 16.1 0.00 0.00 0.00 62 1032.7
20190215121437 8 115 4.8 16.1 0.00 0.00 0.00 64 1032.7
20190215120537 8 109 3.2 16.1 0.00 0.00 0.00 62 1032.7
20190215115637 8 126 1.6 6.4 0.00 0.00 0.00 63 1032.8
20190215114738 8 125 3.2 11.3 0.00 0.00 0.00 65 1032.7